| time (UTC) | temp F | wind direction | speed MPH | gust MPH | rain 1hr in | rain 24hr in | rain mn in | humidity % | barometer mb |
| 20260903193107 | 98 | 236 | 17.0 | 22.0 | 0.00 | 0.12 | 0.00 | 27 | 1013.0 |
| 20260903191602 | 99 | 0 | 0.0 | 5.0 | 0.00 | 0.12 | 0.00 | 29 | 1013.2 |
| 20260903190104 | 98 | 82 | 3.0 | 6.0 | 0.00 | 0.12 | 0.00 | 30 | 1013.4 |
| 20260903184606 | 98 | 0 | 0.0 | 7.0 | 0.00 | 0.12 | 0.00 | 32 | 1013.8 |
| 20260903183107 | 98 | 103 | 0.0 | 6.0 | 0.00 | 0.12 | 0.00 | 31 | 1013.8 |
| 20260903181601 | 97 | 0 | 0.0 | 5.0 | 0.00 | 0.12 | 0.00 | 33 | 1014.1 |
| 20260903180110 | 96 | 80 | 1.0 | 5.0 | 0.00 | 0.12 | 0.00 | 36 | 1014.5 |
| 20260903174611 | 95 | 75 | 2.0 | 9.0 | 0.00 | 0.12 | 0.00 | 34 | 1014.9 |
| 20260903173107 | 95 | 0 | 2.0 | 6.0 | 0.00 | 0.12 | 0.00 | 33 | 1014.7 |
| 20260903171607 | 95 | 0 | 1.0 | 9.0 | 0.00 | 0.12 | 0.00 | 34 | 1014.8 |
| 20260903170109 | 94 | 26 | 5.0 | 10.0 | 0.00 | 0.12 | 0.00 | 36 | 1015.1 |
| 20260903164609 | 94 | 42 | 0.0 | 5.0 | 0.00 | 0.12 | 0.00 | 37 | 1015.1 |
| 20260903163104 | 94 | 0 | 0.0 | 6.0 | 0.00 | 0.12 | 0.00 | 39 | 1015.1 |
| 20260903161605 | 92 | 0 | 0.0 | 3.0 | 0.00 | 0.12 | 0.00 | 40 | 1015.1 |
| 20260903160111 | 92 | 0 | 0.0 | 0.0 | 0.00 | 0.12 | 0.00 | 42 | 1015.0 |
| 20260903154612 | 91 | 0 | 0.0 | 0.0 | 0.00 | 0.12 | 0.00 | 44 | 1015.1 |
| 20260903153111 | 89 | 0 | 0.0 | 3.0 | 0.00 | 0.12 | 0.00 | 44 | 1015.2 |
| 20260903151601 | 88 | 0 | 0.0 | 3.0 | 0.00 | 0.12 | 0.00 | 46 | 1015.2 |
| 20260903150109 | 87 | 0 | 0.0 | 4.0 | 0.00 | 0.12 | 0.00 | 48 | 1015.2 |
| 20260903144606 | 86 | 0 | 0.0 | 0.0 | 0.00 | 0.12 | 0.00 | 51 | 1015.2 |
| 20260903143111 | 83 | 0 | 0.0 | 0.0 | 0.00 | 0.12 | 0.00 | 57 | 1015.3 |
| 20260903141611 | 80 | 0 | 0.0 | 2.0 | 0.00 | 0.12 | 0.00 | 61 | 1015.1 |
| 20260903134611 | 77 | 292 | 3.0 | 7.0 | 0.00 | 0.12 | 0.00 | 65 | 1015.1 |
| 20260903133111 | 76 | 274 | 3.0 | 7.0 | 0.00 | 0.12 | 0.00 | 67 | 1014.8 |
| 20260903131601 | 75 | 288 | 2.0 | 5.0 | 0.00 | 0.12 | 0.00 | 68 | 1014.7 |
| 20260903130128 | 74 | 300 | 4.0 | 8.0 | 0.00 | 0.12 | 0.00 | 69 | 1014.4 |
| 20260903124610 | 75 | 297 | 5.0 | 8.0 | 0.00 | 0.12 | 0.00 | 69 | 1013.7 |
| 20260903123104 | 75 | 290 | 2.0 | 3.0 | 0.00 | 0.12 | 0.00 | 68 | 1013.9 |
| 20260903121602 | 75 | 286 | 3.0 | 4.0 | 0.00 | 0.12 | 0.00 | 67 | 1013.8 |
| 20260903120123 | 76 | 284 | 2.0 | 3.0 | 0.00 | 0.12 | 0.00 | 67 | 1013.8 |
| 20260903114557 | 76 | 0 | 0.0 | 0.0 | 0.00 | 0.12 | 0.00 | 69 | 1013.8 |
| 20260903113100 | 75 | 0 | 0.0 | 1.0 | 0.00 | 0.12 | 0.00 | 70 | 1013.8 |
| 20260903111604 | 76 | 0 | 0.0 | 0.0 | 0.00 | 0.12 | 0.00 | 68 | 1013.7 |
| 20260903104604 | 77 | 0 | 0.0 | 2.0 | 0.00 | 0.12 | 0.00 | 62 | 1013.6 |
| 20260903103105 | 78 | 0 | 0.0 | 0.0 | 0.00 | 0.12 | 0.00 | 57 | 1013.9 |
| 20260903101602 | 77 | 0 | 0.0 | 0.0 | 0.00 | 0.12 | 0.00 | 61 | 1013.8 |
| 20260903100104 | 78 | 0 | 0.0 | 0.0 | 0.00 | 0.12 | 0.00 | 63 | 1013.9 |
| 20260903094607 | 79 | 0 | 0.0 | 0.0 | 0.00 | 0.12 | 0.00 | 56 | 1013.9 |
| 20260903093059 | 79 | 0 | 0.0 | 0.0 | 0.00 | 0.12 | 0.00 | 56 | 1014.0 |
| 20260903091603 | 79 | 0 | 0.0 | 2.0 | 0.00 | 0.12 | 0.00 | 56 | 1014.0 |
| 20260903090105 | 79 | 0 | 0.0 | 2.0 | 0.00 | 0.12 | 0.00 | 57 | 1014.0 |
| 20260903084603 | 80 | 145 | 2.0 | 3.0 | 0.00 | 0.12 | 0.00 | 55 | 1014.0 |
| 20260903083115 | 80 | 241 | 0.0 | 0.0 | 0.00 | 0.12 | 0.00 | 55 | 1014.1 |
| 20260903081620 | 80 | 0 | 0.0 | 5.0 | 0.00 | 0.12 | 0.00 | 55 | 1014.2 |
| 20260903080103 | 81 | 151 | 2.0 | 4.0 | 0.00 | 0.12 | 0.00 | 53 | 1014.2 |
| 20260903074610 | 81 | 166 | 3.0 | 6.0 | 0.00 | 0.12 | 0.00 | 51 | 1014.4 |
| 20260903073135 | 81 | 150 | 2.0 | 5.0 | 0.00 | 0.12 | 0.00 | 52 | 1014.4 |
| 20260903071622 | 80 | 178 | 5.0 | 9.0 | 0.00 | 0.12 | 0.00 | 51 | 1014.4 |
| 20260903070100 | 78 | 171 | 0.0 | 4.0 | 0.00 | 0.12 | 0.00 | 56 | 1014.4 |
| 20260903064559 | 77 | 164 | 4.0 | 6.0 | 0.00 | 0.12 | 0.00 | 59 | 1014.5 |
| 20260903063058 | 77 | 217 | 2.0 | 4.0 | 0.00 | 0.12 | 0.00 | 65 | 1014.6 |
| 20260903061558 | 77 | 217 | 1.0 | 4.0 | 0.00 | 0.12 | 0.00 | 64 | 1014.6 |
| 20260903060149 | 78 | 213 | 2.0 | 4.0 | 0.00 | 0.12 | 0.00 | 62 | 1014.6 |
| 20260903054601 | 79 | 217 | 3.0 | 5.0 | 0.00 | 0.12 | 0.00 | 60 | 1014.6 |
| 20260903053055 | 79 | 217 | 3.0 | 5.0 | 0.00 | 0.12 | 0.00 | 60 | 1014.6 |
| 20260903051607 | 81 | 0 | 0.0 | 4.0 | 0.00 | 0.12 | 0.00 | 58 | 1014.5 |
| 20260903044602 | 82 | 0 | 1.0 | 5.0 | 0.00 | 0.12 | 0.12 | 54 | 1014.4 |
| 20260903043054 | 82 | 0 | 0.0 | 1.0 | 0.00 | 0.12 | 0.12 | 58 | 1014.4 |
| 20260903041600 | 83 | 0 | 0.0 | 1.0 | 0.00 | 0.12 | 0.12 | 58 | 1014.2 |
| 20260903040105 | 84 | 0 | 0.0 | 0.0 | 0.00 | 0.12 | 0.12 | 47 | 1014.2 |
| 20260903034555 | 85 | 0 | 0.0 | 6.0 | 0.00 | 0.12 | 0.12 | 49 | 1014.3 |
| 20260903033103 | 84 | 121 | 0.0 | 1.0 | 0.00 | 0.12 | 0.12 | 53 | 1014.2 |
| 20260903031600 | 85 | 0 | 0.0 | 0.0 | 0.00 | 0.12 | 0.12 | 52 | 1014.1 |
| 20260903024559 | 83 | 0 | 0.0 | 0.0 | 0.00 | 0.12 | 0.12 | 57 | 1013.7 |
| 20260903023110 | 84 | 0 | 0.0 | 1.0 | 0.00 | 0.12 | 0.12 | 59 | 1013.5 |
| 20260903021607 | 85 | 0 | 0.0 | 0.0 | 0.00 | 0.12 | 0.12 | 55 | 1013.3 |
| 20260903014605 | 87 | 0 | 0.0 | 1.0 | 0.00 | 0.12 | 0.12 | 50 | 1013.5 |
| 20260903013106 | 88 | 0 | 0.0 | 8.0 | 0.00 | 0.12 | 0.12 | 41 | 1013.3 |
| 20260903011602 | 89 | 0 | 4.0 | 11.0 | 0.01 | 0.12 | 0.12 | 38 | 1013.1 |
| 20260903010058 | 89 | 0 | 0.0 | 9.0 | 0.03 | 0.12 | 0.12 | 40 | 1013.1 |
| 20260903004600 | 88 | 287 | 7.0 | 12.0 | 0.12 | 0.12 | 0.12 | 42 | 1013.0 |
| 20260903003059 | 89 | 327 | 9.0 | 18.0 | 0.12 | 0.12 | 0.12 | 38 | 1012.9 |
| 20260903001610 | 89 | 309 | 12.0 | 18.0 | 0.11 | 0.11 | 0.11 | 42 | 1013.1 |
| 20260903000103 | 93 | 250 | 7.0 | 17.0 | 0.09 | 0.09 | 0.09 | 36 | 1013.2 |
| 20260902234623 | 99 | 200 | 9.0 | 13.0 | 0.00 | 0.00 | 0.00 | 26 | 1012.6 |
| 20260902233101 | 100 | 145 | 8.0 | 12.0 | 0.00 | 0.00 | 0.00 | 26 | 1012.8 |
| 20260902231608 | 101 | 0 | 0.0 | 1.0 | 0.00 | 0.00 | 0.00 | 26 | 1012.7 |
| 20260902230115 | 101 | 149 | 2.0 | 7.0 | 0.00 | 0.00 | 0.00 | 25 | 1012.8 |
| 20260902224603 | 100 | 0 | 0.0 | 3.0 | 0.00 | 0.00 | 0.00 | 25 | 1012.8 |
| 20260902223101 | 97 | 0 | 0.0 | 1.0 | 0.00 | 0.00 | 0.00 | 29 | 1013.0 |
| 20260902221603 | 99 | 322 | 0.0 | 8.0 | 0.00 | 0.00 | 0.00 | 25 | 1013.1 |
| 20260902220106 | 99 | 213 | 1.0 | 9.0 | 0.00 | 0.00 | 0.00 | 24 | 1013.1 |
| 20260902214605 | 100 | 0 | 2.0 | 6.0 | 0.00 | 0.00 | 0.00 | 25 | 1013.5 |
| 20260902213100 | 98 | 0 | 1.0 | 7.0 | 0.00 | 0.00 | 0.00 | 25 | 1013.5 |
| 20260902211602 | 99 | 0 | 0.0 | 5.0 | 0.00 | 0.00 | 0.00 | 26 | 1013.8 |
| 20260902204601 | 99 | 0 | 0.0 | 6.0 | 0.00 | 0.00 | 0.00 | 27 | 1014.2 |
| 20260902203133 | 98 | 64 | 3.0 | 7.0 | 0.00 | 0.00 | 0.00 | 27 | 1014.6 |
| 20260902201603 | 98 | 85 | 0.0 | 6.0 | 0.00 | 0.00 | 0.00 | 28 | 1014.9 |
| 20260902194602 | 98 | 0 | 2.0 | 8.0 | 0.00 | 0.00 | 0.00 | 26 | 1015.4 |